Weather observations for the past three days for
Rome, R. B. Russell Airport
Imperial (Metric)
Date Time (edt) Wind (mph) Vis. (mi.) Weather Sky Cond. Temperature (ºF) Relative Humidity Wind Chill (°F) Heat Index (°F) Pressure Precipitation (in)
Air Dwpt 6 hour altimeter (in) sea level (mb) 1 hr 3 hr 6 hr
Max. Min.
23 01:53 Calm 10.00 Fair CLR 73.9 69.1 93 73 85% 29.99 1014.4
23 00:53 Calm 10.00 Fair CLR 75 71.1 88% 75 30.01 1014.9
22 23:53 N 3 10.00 Fair CLR 77 71.1 82% 79 30.01 1014.9
22 22:53 Calm 10.00 Fair CLR 77 69.1 77% 79 30.01 1014.9
22 21:53 Calm 10.00 Fair CLR 81 69.1 67% 84 29.99 1014.5
22 20:53 Calm 10.00 Fair CLR 84.9 66 53% 87 29.98 1014.1
22 19:53 Calm 10.00 Fair CLR 91.9 64.9 96.1 91 41% 94 29.98 1014.0
22 18:53 Calm 10.00 Fair CLR 95 62.1 34% 96 29.98 1014.2
22 17:53 Calm 10.00 Fair CLR 93.9 63 36% 95 29.99 1014.3
22 16:53 SW 6 10.00 Fair CLR 93.9 64 37% 96 30.01 1015.0
22 15:53 S 7 10.00 Fair CLR 93.9 64 37% 96 30.03 1015.7
22 14:53 Vrbl 3 10.00 Fair CLR 93 64 38% 95 30.06 1016.8
22 13:53 E 6 10.00 Fair CLR 91.9 64.9 91.9 73 41% 94 30.09 1017.8
22 12:53 Calm 10.00 Fair CLR 90 63 41% 91 30.11 1018.5
22 11:53 Calm 10.00 Fair CLR 88 66.9 50% 91 30.13 1019.0
22 10:53 Calm 10.00 Fair CLR 84 66.9 57% 87 30.14 1019.4
22 09:53 E 5 10.00 Fair CLR 82 66.9 60% 85 30.15 1019.8
22 08:53 Calm 10.00 Fair CLR 79 66.9 67% 81 30.15 1019.8
22 07:53 Calm 10.00 Fair CLR 73 66.9 73.9 70 81% 30.15 1019.8
22 06:53 Calm 10.00 Fair CLR 70 66.9 90% 30.14 1019.6
22 05:53 N 3 10.00 Fair CLR 70 66.9 90% 30.13 1019.3
22 04:53 Calm 10.00 Fair CLR 71.1 66.9 87% 30.13 1019.3
22 03:53 Calm 10.00 A Few Clouds FEW070 72 68 87% 30.13 1019.0
22 02:53 Calm 10.00 Fair CLR 73 68 84% 30.13 1019.0
22 01:53 Calm 10.00 Fair CLR 73.9 68 91.9 73.9 82% 30.14 1019.4
22 00:53 N 3 10.00 Fair CLR 73.9 68 82% 30.14 1019.5
21 23:53 Calm 10.00 Partly Cloudy SCT065 75.9 71.1 85% 76 30.14 1019.6
21 22:53 Calm 10.00 Fair CLR 78.1 70 76% 80 30.13 1019.1
21 21:53 Calm 10.00 Fair CLR 80.1 69.1 69% 83 30.11 1018.5
21 20:53 Calm 10.00 Fair CLR 82.9 66 57% 85 30.1 1018.3
21 19:53 N 5 10.00 Fair CLR 91.9 62.1 93.9 90 37% 93 30.11 1018.4
21 18:53 Vrbl 6 10.00 Fair CLR 93 63 37% 94 30.11 1018.6
21 17:53 Calm 10.00 Fair CLR 93 62.1 36% 94 30.12 1018.9
21 16:53 NE 5 10.00 A Few Clouds FEW060 93 63 37% 94 30.14 1019.5
21 15:53 Vrbl 5 10.00 Fair CLR 93.9 63 36% 95 30.16 1020.2
21 14:53 Vrbl 5 10.00 Fair CLR 91 63 39% 92 30.18 1020.9
21 13:53 NE 6 10.00 Fair CLR 90 63 91 71.1 41% 91 30.21 1021.8
21 12:53 N 8 10.00 Fair CLR 88 63 43% 89 30.23 1022.7
21 11:53 Calm 10.00 Fair CLR 86 64 48% 87 30.25 1023.3
21 10:53 E 6 10.00 Fair CLR 82.9 64.9 55% 85 30.26 1023.6
21 09:53 Vrbl 5 10.00 Fair CLR 80.1 64.9 60% 82 30.27 1024.0
21 08:53 Calm 10.00 Fair CLR 77 66 69% 79 30.27 1023.8
21 07:53 Calm 10.00 A Few Clouds FEW065 71.1 64.9 72 66.9 81% 30.26 1023.5
21 06:53 Calm 10.00 Mostly Cloudy BKN060 68 64.9 90% 30.25 1023.3
21 05:53 Calm 10.00 A Few Clouds FEW065 66.9 64.9 93% 30.24 1023.0
21 04:53 NE 3 10.00 Mostly Cloudy BKN065 69.1 64.9 87% 30.23 1022.5
21 02:53 Calm 10.00 A Few Clouds FEW060 71.1 66 84% 30.23 1022.7
21 01:53 Calm 10.00 Mostly Cloudy BKN060 72 66 88 71.1 82% 30.24 1022.7
21 00:53 NE 5 10.00 Mostly Cloudy BKN060 73 66.9 81% 30.24 1022.9
20 23:53 Calm 10.00 Mostly Cloudy BKN060 73.9 66.9 79% 30.24 1022.9
20 22:53 Calm 10.00 A Few Clouds FEW060 75.9 66 72% 77 30.24 1022.7
20 21:53 Calm 10.00 Fair CLR 78.1 64.9 64% 80 30.22 1022.5
20 20:53 Calm 10.00 Fair CLR 82.9 64 53% 84 30.21 1022.0
20 19:53 E 3 10.00 Fair CLR 88 62.1 91 87.1 42% 88 30.21 1021.9
20 18:53 SE 7 10.00 Fair CLR 89.1 60.1 38% 89 30.22 1022.2
20 17:53 SE 8 10.00 Fair CLR 90 60.1 37% 90 30.23 1022.6
20 16:53 E 7 10.00 A Few Clouds FEW070 90 60.1 37% 90 30.24 1022.9
20 15:53 E 9 10.00 Partly Cloudy SCT065 89.1 62.1 41% 89 30.26 1023.5
20 14:53 E 10 G 17 10.00 Partly Cloudy SCT065 89.1 61 39% 89 30.27 1024.0
20 13:53 E 7 10.00 Mostly Cloudy BKN060 87.1 62.1 89.1 71.1 43% 88 30.29 1024.6
20 12:53 SE 8 10.00 Mostly Cloudy BKN050 86 62.1 45% 87 30.31 1025.3
20 11:53 E 9 10.00 Partly Cloudy SCT045 84.9 63 48% 86 30.32 1025.7
20 10:53 Vrbl 6 10.00 Fair CLR 82.9 66 57% 85 30.32 1025.8
20 09:53 Vrbl 3 10.00 Fair CLR 80.1 66 62% 82 30.32 1025.7
20 08:53 NE 3 10.00 Fair CLR 75.9 64 67% 78 30.31 1025.5
20 07:53 Calm 10.00 Fair CLR 71.1 64 71.1 66 79% 30.31 1025.3
20 06:53 Calm 10.00 Partly Cloudy SCT060 68 62.1 81% 30.3 1024.9
20 05:53 Vrbl 3 10.00 A Few Clouds FEW060 66 62.1 87% 30.28 1024.5
20 04:53 Calm 10.00 Fair CLR 66.9 62.1 84% 30.26 1023.7
20 03:53 Calm 10.00 Fair CLR 68 63 84% 30.25 1023.4
20 02:53 Calm 10.00 Fair CLR 68 63 84% 30.25 1023.4
Date Time (edt) Wind (mph) Vis. (mi.) Weather Sky Cond. Air Dwpt Max. Min. Relative Humidity Wind Chill (°F) Heat Index (°F) altimeter (in) sea level (mb) 1 hr 3 hr 6 hr
6 hour
Temperature (ºF) Pressure Precipitation (in)